(115277) = 1993 FG63 = 2003 SS185

Discovered at Anderson Mesa on 2003-09-22 by LONEOS.

Orbit

Orbit type: Main Belt

Note: WebGL enabled browser required.

epoch2023-02-25.0
epoch JD2460000.5
perihelion date2021-01-10.93888
perihelion JD2459225.43888
argument of perihelion (°)119.13719
ascending node (°)268.13379
inclination (°)4.10342
eccentricity0.0412005
perihelion distance (AU)2.5098172
Tisserand w.r.t. Jupiter3.4
ΔV w.r.t. Earth (km/sec)10.0
semimajor axis (AU)2.6176663
mean anomaly (°)180.37169
mean daily motion (°/day)0.23271930
aphelion distance (AU)2.726
period (years)4.24
P-vector [x]0.88661151
P-vector [y]0.39559482
P-vector [z]0.23963464
Q-vector [x]-0.45695192
Q-vector [y]0.82932516
Q-vector [z]0.32158159
absolute magnitude16.24
phase slope0.15
uncertainty0
referenceMPO 745323
observations used556
oppositions15
arc length (days)8661
first opposition used1999
last opposition used2023
residual rms (arc-secs)0.77
perturbers coarse indicatorM-v
perturbers precise indicator003Ek
first observation date used1999-10-01.0
last observation date used2023-06-18.0
computer nameMPCLINUX
JD of orbit computation2456937.457204
perihelion JD uncertainty (days)2.4522E-04
argument of perihelion uncertainty (°)8.0774E-05
ascending node uncertainty (°)5.4584E-05
inclination uncertainty (°)3.1058E-06
eccentricity uncertainty 3.9984E-08
perihelion distance uncertainty (AU)9.8888E-08
Minimum Orbit Intersection Distances (in AU)
for orbit epoch: 2460000.5, reference: E2023-M50
Mercury2.16189
Venus1.79114
Earth1.51544
Mars0.98925
Jupiter2.45881
Saturn6.48709
Uranus15.752
Neptune27.3537

Observations

567 total observations over interval: 1993 03 21.12743 – 2023 06 18.331508
These data are available for download (format description).

Date (UT) J2000 RA J2000 Dec Magn Location Ref
1993 03 21.12743 12 17 27.79 -08 51 08.1 20.3   809 – European Southern Observatory, La Silla MPC 23625
1993 03 22.12465 12 16 36.81 -08 45 53.8 18.7   809 – European Southern Observatory, La Silla MPC 23625
1999 10 01.37236 01 19 20.89 +15 11 18.7 19.7 R 703 – Catalina Sky Survey MPS 90996
1999 10 01.38478 01 19 20.03 +15 11 16.4 18.8 R 703 – Catalina Sky Survey MPS 90996
1999 10 01.39719 01 19 19.46 +15 11 11.6 19.5 R 703 – Catalina Sky Survey MPS 90996
1999 10 01.40961 01 19 18.86 +15 11 07.5 18.4 R 703 – Catalina Sky Survey MPS 90996
1999 10 20.19364 01 03 17.97 +13 25 57.7 20.0   704 – Lincoln Laboratory ETS, New Mexico MPS 90996
1999 10 20.22482 01 03 16.27 +13 25 46.2 19.5   704 – Lincoln Laboratory ETS, New Mexico MPS 90996
1999 10 20.24038 01 03 15.47 +13 25 40.1 19.9   704 – Lincoln Laboratory ETS, New Mexico MPS 90996
2003 09 17.32603 23 18 29.56 +02 52 53.1 19.7 V 691 – Steward Observatory, Kitt Peak-Spacewatch MPS 86333
2003 09 17.35316 23 18 28.14 +02 52 44.3 19.7 V 691 – Steward Observatory, Kitt Peak-Spacewatch MPS 86333
2003 09 17.38067 23 18 26.70 +02 52 35.5 19.8 V 691 – Steward Observatory, Kitt Peak-Spacewatch MPS 86333
2003 09 22.22984 23 14 26.60 +02 25 51.1 19.4 R 699 – Lowell Observatory-LONEOS MPS 85546
2003 09 22.23231 23 14 26.57 +02 25 48.1 21.2 R 683 – Goodricke-Pigott Observatory, Tucson MPS 86333
2003 09 22.24570 23 14 25.75 +02 25 45.3 21.1 R 683 – Goodricke-Pigott Observatory, Tucson MPS 86333
2003 09 22.24980 23 14 25.61 +02 25 44.6   699 – Lowell Observatory-LONEOS MPS 85546
2003 09 22.25862 23 14 25.16 +02 25 41.4 20.8 R 683 – Goodricke-Pigott Observatory, Tucson MPS 86333
2003 09 22.26979 23 14 24.59 +02 25 38.3   699 – Lowell Observatory-LONEOS MPS 85546
2003 09 22.28979 23 14 23.58 +02 25 30.8   699 – Lowell Observatory-LONEOS MPS 85546
2003 09 23.29161 23 13 35.36 +02 19 54.3 19.2   644 – Palomar Mountain/NEAT MPS 85546
2003 09 23.30280 23 13 34.80 +02 19 50.7 19.1   644 – Palomar Mountain/NEAT MPS 85546
2003 09 23.31449 23 13 34.21 +02 19 46.9 19.2   644 – Palomar Mountain/NEAT MPS 85546
2003 09 27.18770 23 10 34.50 +01 58 01.6 19.9   704 – Lincoln Laboratory ETS, New Mexico MPS 86333
2003 09 27.20057 23 10 33.87 +01 57 56.5 19.8   704 – Lincoln Laboratory ETS, New Mexico MPS 86333
2003 09 27.21355 23 10 33.25 +01 57 52.6 20.0   704 – Lincoln Laboratory ETS, New Mexico MPS 86333
2003 09 27.22617 23 10 32.66 +01 57 48.9 19.7   704 – Lincoln Laboratory ETS, New Mexico MPS 86333
2003 10 17.189810 22 59 28.160 +00 18 05.45 20.11 V 645 – Apache Point-Sloan Digital Sky Survey MPS 137017
2003 10 17.193282 22 59 28.085 +00 18 04.63 21.02   645 – Apache Point-Sloan Digital Sky Survey MPS 137017
2003 10 19.177280 22 58 52.601 +00 10 19.89 20.42 V 645 – Apache Point-Sloan Digital Sky Survey MPS 137017
2003 10 19.180752 22 58 52.538 +00 10 19.12 21.34   645 – Apache Point-Sloan Digital Sky Survey MPS 137017
2003 10 24.164770 22 57 50.887 -00 06 47.41 20.21 V 645 – Apache Point-Sloan Digital Sky Survey MPS 137017
2003 10 24.168242 22 57 50.856 -00 06 47.99 21.08   645 – Apache Point-Sloan Digital Sky Survey MPS 137017
2003 11 19.093880 23 03 02.381 -00 34 17.95 20.72 V 645 – Apache Point-Sloan Digital Sky Survey MPS 137017
2003 11 19.097352 23 03 02.486 -00 34 17.80 21.67   645 – Apache Point-Sloan Digital Sky Survey MPS 137017
2005 01 06.35758 07 40 03.60 +18 54 37.7 19.9   704 – Lincoln Laboratory ETS, New Mexico MPS 123559
2005 01 06.37245 07 40 02.73 +18 54 39.4 20.2   704 – Lincoln Laboratory ETS, New Mexico MPS 123559
2005 01 06.39915 07 40 01.03 +18 54 41.3 19.9   704 – Lincoln Laboratory ETS, New Mexico MPS 123559
2005 01 11.30057 07 35 01.47 +18 58 41.7 19.1   704 – Lincoln Laboratory ETS, New Mexico MPS 124092
2005 01 11.31389 07 35 00.61 +18 58 42.2 19.2   704 – Lincoln Laboratory ETS, New Mexico MPS 124092
2005 01 11.32702 07 34 59.90 +18 58 42.3 19.4   704 – Lincoln Laboratory ETS, New Mexico MPS 124092
2005 01 14.90445 07 31 20.00 +19 01 44.5 19.1 V 049 – Uppsala-Kvistaberg MPS 124726
2005 01 14.91857 07 31 19.11 +19 01 45.1 19.0 V 049 – Uppsala-Kvistaberg MPS 124726
2005 01 14.93567 07 31 18.04 +19 01 47.2 18.3 V 049 – Uppsala-Kvistaberg MPS 124726
2005 01 15.28558 07 30 56.65 +19 02 07.7 19.8   704 – Lincoln Laboratory ETS, New Mexico MPS 124726
2005 01 15.31184 07 30 55.04 +19 02 09.5 20.0   704 – Lincoln Laboratory ETS, New Mexico MPS 124726
2005 01 15.32577 07 30 54.12 +19 02 10.3 19.9   704 – Lincoln Laboratory ETS, New Mexico MPS 124726
2005 01 15.33912 07 30 53.19 +19 02 11.6 20.3   704 – Lincoln Laboratory ETS, New Mexico MPS 124726
2005 01 16.19657 07 30 01.34 +19 02 54.8 19.6 V 691 – Steward Observatory, Kitt Peak-Spacewatch MPS 124726
2005 01 16.22275 07 29 59.70 +19 02 56.3 19.6 V 691 – Steward Observatory, Kitt Peak-Spacewatch MPS 124726
2005 01 16.24961 07 29 58.02 +19 02 57.9 19.5 V 691 – Steward Observatory, Kitt Peak-Spacewatch MPS 124726
2005 03 17.13689 07 08 05.73 +19 20 01.2 20.1 R G96 – Mt. Lemmon Survey MPS 129068
2005 03 17.14312 07 08 05.90 +19 20 01.1 20.4 R G96 – Mt. Lemmon Survey MPS 129068
2005 03 17.14935 07 08 06.05 +19 20 00.9 20.0 R G96 – Mt. Lemmon Survey MPS 129068
2005 03 17.15558 07 08 06.25 +19 20 00.7 20.4 R G96 – Mt. Lemmon Survey MPS 129068
2007 08 16.26120 21 36 25.61 -08 23 47.7 19.1   704 – Lincoln Laboratory ETS, New Mexico MPS 214227
2007 08 16.27359 21 36 24.91 -08 23 49.2 19.6   704 – Lincoln Laboratory ETS, New Mexico MPS 214227
2007 08 16.29817 21 36 23.61 -08 23 55.3 19.5   704 – Lincoln Laboratory ETS, New Mexico MPS 214227
2007 08 16.31045 21 36 22.81 -08 23 57.1 19.3   704 – Lincoln Laboratory ETS, New Mexico MPS 214227
2007 08 18.26968 21 34 38.50 -08 30 50.4 18.9 R 699 – Lowell Observatory-LONEOS MPS 214227
2007 08 18.28795 21 34 37.46 -08 30 53.3   699 – Lowell Observatory-LONEOS MPS 214227
2007 08 18.30623 21 34 36.48 -08 30 57.1   699 – Lowell Observatory-LONEOS MPS 214227
2007 08 18.32452 21 34 35.44 -08 31 02.1   699 – Lowell Observatory-LONEOS MPS 214227
2007 09 10.18406 21 16 59.62 -09 52 50.9 19.7 V 703 – Catalina Sky Survey MPS 215829
2007 09 10.19112 21 16 59.41 -09 52 51.0 19.9 V 703 – Catalina Sky Survey MPS 215829
2007 09 10.19824 21 16 59.12 -09 52 52.6 20.4 V 703 – Catalina Sky Survey MPS 215829
2007 09 10.20532 21 16 58.90 -09 52 54.6 20.1 V 703 – Catalina Sky Survey MPS 215829
2007 10 12.16175 21 11 54.31 -10 50 43.1 20.3 V G96 – Mt. Lemmon Survey MPS 219936
2007 10 12.16789 21 11 54.38 -10 50 42.9 20.2 V G96 – Mt. Lemmon Survey MPS 219936
2007 10 12.17404 21 11 54.49 -10 50 43.4 20.1 V G96 – Mt. Lemmon Survey MPS 219936
2007 10 12.18016 21 11 54.60 -10 50 43.5 20.0 V G96 – Mt. Lemmon Survey MPS 219936
2007 10 12.18926 21 11 54.70 -10 50 43.6 20.5 V G96 – Mt. Lemmon Survey MPS 219936
2007 10 12.19676 21 11 54.81 -10 50 43.8 20.4 V G96 – Mt. Lemmon Survey MPS 219936
2007 10 12.20425 21 11 54.96 -10 50 43.9 20.5 V G96 – Mt. Lemmon Survey MPS 219936
2007 10 12.21175 21 11 55.06 -10 50 43.9 20.7 V G96 – Mt. Lemmon Survey MPS 219936
2008 11 22.30758 06 02 11.37 +24 26 11.0   691 – Steward Observatory, Kitt Peak-Spacewatch MPS 267185
2008 11 22.32872 06 02 10.36 +24 26 09.1   691 – Steward Observatory, Kitt Peak-Spacewatch MPS 267185
2008 11 22.34391 06 02 09.76 +24 26 08.4   691 – Steward Observatory, Kitt Peak-Spacewatch MPS 267185
2008 11 30.33791 05 55 48.29 +24 14 22.5 19.9 V 691 – Steward Observatory, Kitt Peak-Spacewatch MPS 268512
2008 11 30.35554 05 55 47.35 +24 14 20.8 19.8 V 691 – Steward Observatory, Kitt Peak-Spacewatch MPS 268512
2008 11 30.37063 05 55 46.51 +24 14 19.3 19.8 V 691 – Steward Observatory, Kitt Peak-Spacewatch MPS 268512
2008 12 20.85889 05 35 09.94 +23 33 28.1 19.1 V J75 – OAM Observatory, La Sagra MPS 272110
2008 12 20.87257 05 35 09.09 +23 33 26.3 19.4 V J75 – OAM Observatory, La Sagra MPS 272110
2008 12 20.88615 05 35 08.18 +23 33 23.6 19.3 V J75 – OAM Observatory, La Sagra MPS 272110
2009 01 15.51098 05 14 03.42 +22 34 22.8 20.3 R D29 – Purple Mountain Observatory, XuYi Station MPS 275513
2009 01 15.52522 05 14 02.87 +22 34 20.0 19.9 R D29 – Purple Mountain Observatory, XuYi Station MPS 275513
2009 01 15.53951 05 14 02.49 +22 34 20.3 20.1 R D29 – Purple Mountain Observatory, XuYi Station MPS 275513
